COSMOS 2534 (758) (44299 NORAD) Tracking and Keplerian Element Data

This shows tracking and keplerian element data for the satellite.

Feedback or suggestion? Click here.




ElementValue
Catalog44299
NameCOSMOS 2534 (758)
Epoch Orbit115
Epoch Day201.46341316
Epoch Year2019
RAAN278.3998
Inclination64.7638
Eccentricity0.0013172
Argument of Perigee283.8287
Mean Anonmoly178.9656
Mean Motion2.13101965
Decay Rate-4E-08
L11 44299U 19030A 19201.46341316 -.00000004 00000-0 00000-0 0 9997
L22 44299 64.7638 278.3998 0013172 283.8287 178.9656 2.13101965 1159

Live tracking and technical data element details for COSMOS 2534 (758) (NORAD 44299). COSMOS 2534 (758) can be tracked NOW for your location showing map with azimuth and elevation plus other details from your city location.

Track the satellite on the map from your city or location and see movement details for azimuth, elevation, latitude, longitude, range, height, and movement on the map or in text.







IsCatalogInMostPopularTable: catalog: 44299, numindb: 11
Update: records affected: 1



GetName: 44299 COSMOS 2534 (758)

Hit Count: updated at: Sun, 21 Jul 2019 16:06:19 GMT